Vorticity
6 5 6 6 5 5 6 6 6 5 5 5 5 5 5 5 4 4 4 5 6 8 8 9 9 8 7 7 7 8 8 9 9
6 7 7 6 6 6 6 6 5 5 5 5 5 5 5 4 4 4 5 6 7 9 8 8 8 7 5 7 8 8 8 8 9
7 7 6 6 6 6 6 5 4 4 4 5 5 5 5 4 4 4 4 6 10 8 9 9 7 6 6 6 7 7 7 7 8
7 7 6 6 6 6 5 4 4 4 5 5 5 5 5 5 4 5 6 8 9 10 10 8 7 6 5 6 6 6 6 7 7
6 6 6 6 6 6 5 5 4 4 4 4 5 5 5 5 4 5 7 10 11 11 10 8 6 5 5 5 5 6 6 7 7
6 6 7 6 6 5 5 5 4 4 4 4 4 5 5 5 5 6 7 10 10 11 8 6 5 5 5 5 5 6 6 6 7
6 6 6 6 6 5 5 5 4 4 4 4 4 5 5 5 5 6 8 8 10 9 8 7 6 6 5 5 5 5 6 6 6
6 6 6 5 5 5 5 5 4 4 4 4 4 5 5 6 5 6 7 8 9 8 7 6 6 6 5 5 5 5 5 6 7
5 5 5 6 5 5 5 5 4 4 4 4 5 5 5 6 5 6 7 7 8 9 8 6 7 6 6 6 5 6 5 6 6
4 5 5 5 5 5 5 5 5 5 5 5 5 5 5 6 5 5 6 6 7 8 9 8 6 6 6 6 6 7 7 6 6
5 5 5 5 5 5 5 5 5 5 5 5 5 5 5 6 5 6 6 6 6 7 8 8 6 6 5 6 6 7 7 7 7
5 5 6 6 6 6 6 6 6 6 5 5 5 5 5 5 6 6 6 6 6 6 8 7 6 5 5 5 5 5 6 6 7
6 6 5 5 6 6 7 7 7 6 6 6 5 5 5 5 6 6 6 6 7 6 7 7 8 7 6 6 5 5 5 5 5
4 3 3 4 6 6 6 6 6 6 6 6 5 5 5 5 6 6 6 6 7 6 6 7 8 8 8 7 6 6 6 6 6
2 2 5 6 6 6 6 6 6 7 6 6 6 5 5 5 6 6 6 6 7 7 6 6 6 7 8 8 7 7 7 6 6
2 2 5 6 6 5 6 6 7 7 7 6 5 6 5 5 5 5 6 6 7 6 6 5 6 7 7 9 9 9 8 8 8
2 3 4 6 6 5 6 6 7 7 7 6 6 6 5 5 5 5 6 6 6 6 5 5 6 7 8 8 8 8 7 7 8
2 2 4 6 6 5 7 6 6 7 7 7 6 7 6 7 4 5 6 6 6 6 5 5 6 6 7 7 7 6 6 6 6
3 2 4 6 6 6 7 7 6 6 6 6 6 6 6 5 6 5 5 5 6 6 6 6 6 6 7 7 7 6 7 7 7
4 4 4 4 5 5 7 7 7 6 6 6 7 6 6 6 5 5 6 6 6 6 7 6 6 6 7 8 7 6 6 6 6
Height
3174 3175 3177 3178 3180 3181 3182 3183 3183 3184 3184 3183 3183 3183 3183 3182 3181 3180 3177 3176 3175 3173 3170 3169 3168 3167 3166 3164 3163 3161 3159 3158 3157
3173 3175 3177 3178 3179 3180 3181 3182 3182 3183 3184 3184 3183 3182 3182 3182 3180 3179 3177 3176 3175 3173 3170 3169 3168 3167 3166 3165 3163 3161 3159 3158 3156
3173 3174 3176 3178 3178 3180 3181 3181 3181 3182 3183 3183 3183 3182 3182 3181 3180 3179 3177 3175 3174 3172 3171 3169 3169 3168 3167 3165 3163 3161 3159 3157 3156
3172 3174 3176 3177 3178 3179 3180 3181 3181 3182 3182 3183 3182 3182 3181 3180 3179 3178 3177 3175 3173 3172 3171 3170 3170 3169 3167 3166 3164 3162 3160 3158 3156
3172 3173 3175 3177 3178 3179 3180 3181 3181 3182 3181 3182 3182 3181 3180 3180 3179 3178 3177 3175 3174 3172 3171 3171 3170 3169 3168 3166 3164 3163 3161 3159 3157
3172 3173 3175 3177 3178 3179 3180 3180 3181 3181 3181 3182 3181 3181 3181 3180 3179 3178 3177 3175 3173 3173 3172 3172 3171 3170 3168 3166 3165 3164 3162 3160 3157
3171 3172 3175 3176 3178 3179 3179 3180 3180 3181 3181 3181 3181 3181 3180 3180 3179 3178 3176 3174 3173 3173 3173 3172 3171 3170 3168 3166 3165 3164 3162 3160 3158
3170 3171 3173 3175 3176 3178 3179 3179 3180 3180 3180 3181 3181 3180 3180 3179 3178 3177 3176 3175 3174 3173 3172 3172 3171 3170 3168 3166 3165 3164 3162 3160 3158
3169 3170 3172 3174 3176 3176 3177 3178 3179 3180 3180 3180 3180 3179 3179 3178 3178 3176 3175 3174 3174 3173 3172 3172 3171 3170 3167 3166 3165 3164 3162 3159 3157
3167 3168 3170 3173 3174 3175 3176 3177 3178 3178 3179 3179 3179 3178 3178 3177 3177 3176 3175 3173 3173 3173 3172 3171 3170 3169 3166 3165 3164 3163 3161 3159 3157
3165 3166 3168 3170 3172 3173 3174 3175 3176 3177 3177 3177 3177 3177 3177 3176 3176 3175 3174 3173 3172 3172 3171 3171 3169 3167 3166 3164 3163 3162 3161 3159 3156
3162 3164 3166 3168 3170 3171 3172 3173 3174 3175 3175 3175 3175 3176 3175 3175 3175 3174 3173 3172 3172 3171 3170 3169 3168 3167 3166 3165 3163 3162 3160 3158 3156
3160 3162 3164 3165 3167 3169 3170 3171 3172 3172 3173 3173 3173 3174 3174 3173 3173 3173 3172 3171 3171 3170 3169 3168 3168 3166 3165 3164 3162 3161 3159 3157 3155
3157 3159 3161 3163 3164 3166 3167 3168 3169 3170 3170 3171 3171 3171 3172 3172 3172 3171 3170 3169 3169 3169 3169 3168 3166 3165 3164 3163 3161 3160 3158 3156 3154
3154 3156 3158 3160 3162 3163 3164 3165 3166 3167 3167 3168 3168 3169 3169 3169 3169 3169 3169 3168 3168 3168 3167 3166 3165 3163 3162 3161 3160 3158 3157 3154 3153
3150 3153 3154 3156 3158 3159 3161 3162 3163 3164 3164 3165 3166 3166 3167 3167 3167 3167 3167 3166 3166 3166 3165 3164 3163 3161 3160 3158 3158 3157 3155 3154 3152
3146 3148 3150 3152 3154 3156 3157 3158 3159 3160 3161 3162 3163 3164 3165 3164 3164 3165 3164 3164 3164 3163 3162 3161 3160 3159 3157 3156 3155 3155 3153 3152 3150
3141 3144 3146 3148 3149 3152 3153 3154 3155 3156 3157 3158 3160 3160 3161 3161 3161 3161 3161 3161 3160 3160 3159 3159 3158 3156 3155 3154 3153 3152 3151 3149 3147
3136 3139 3141 3143 3145 3147 3149 3150 3151 3152 3153 3154 3155 3156 3157 3157 3158 3158 3158 3158 3158 3157 3157 3156 3155 3154 3153 3151 3151 3150 3149 3147 3145
3131 3134 3136 3138 3140 3142 3143 3145 3146 3148 3149 3150 3150 3151 3152 3153 3153 3154 3154 3155 3155 3154 3153 3152 3151 3150 3149 3148 3147 3147 3146 3144 3143